Powrót do katalogu

CENTISPACE-1 S13

AktywnyNawigacjaLEO
NORAD 62582·PAYLOAD·🇨🇳 China

Wystrzelony Jan 13, 2025 z Yellow Sea Launch Area

Loading…

Następne Przeloty (najbliższe 24 godziny)

TLE

ŚwieżeSource: Space-Track

Epoka: Sep 14, 2026, 17:14 UTC

1 62582U 25007H   26257.71835758 -.00000055  00000-0  81411-4 0  9993
2 62582  54.9827 338.3905 0009014 258.3017 101.6928 13.80625601 87094

Śledź CENTISPACE-1 S13 w czasie rzeczywistym z AllMySat

Download on the App Store